| time (UTC) | temp C | wind direction | speed KPH | gust KPH | rain 1hr cm | rain 24hr cm | rain mn cm | humidity % | barometer mb |
| 20260831011526 | 13 | 221 | 0.0 | 0.0 | 0.00 | 0.00 | 0.00 | 87 | 1013.7 |
| 20260831010032 | 13 | 221 | 0.0 | 0.0 | 0.00 | 0.00 | 0.00 | 87 | 1014.1 |
| 20260831005658 | 14 | 0.0 | 0.0 | 0.00 | 0.00 | 0.00 | 87 | 1015.7 | |
| 20260831004521 | 13 | 221 | 0.0 | 0.0 | 0.00 | 0.00 | 0.00 | 87 | 1014.1 |
| 20260831003021 | 13 | 221 | 0.0 | 0.0 | 0.00 | 0.00 | 0.00 | 87 | 1014.3 |
| 20260831001519 | 14 | 221 | 0.0 | 0.0 | 0.00 | 0.00 | 0.00 | 86 | 1014.4 |
| 20260831000023 | 14 | 221 | 0.0 | 0.0 | 0.00 | 0.00 | 0.00 | 85 | 1014.4 |
| 20260830235728 | 15 | 0.0 | 0.0 | 0.00 | 0.00 | 0.00 | 85 | 1016.0 | |
| 20260830234529 | 14 | 221 | 0.0 | 0.0 | 0.00 | 0.00 | 0.00 | 85 | 1014.5 |
| 20260830233013 | 15 | 221 | 0.0 | 0.0 | 0.00 | 0.00 | 0.00 | 84 | 1014.5 |
| 20260830231511 | 15 | 221 | 0.0 | 0.0 | 0.00 | 0.00 | 0.00 | 84 | 1014.6 |
| 20260830230018 | 15 | 221 | 0.0 | 0.0 | 0.00 | 0.00 | 0.00 | 83 | 1014.7 |
| 20260830225755 | 15 | 0.0 | 0.0 | 0.00 | 0.00 | 0.00 | 83 | 1016.2 | |
| 20260830224506 | 15 | 221 | 0.0 | 0.0 | 0.00 | 0.00 | 0.00 | 82 | 1014.6 |
| 20260830223004 | 16 | 221 | 0.0 | 0.0 | 0.00 | 0.00 | 0.00 | 82 | 1014.7 |
| 20260830221504 | 16 | 221 | 0.0 | 0.0 | 0.00 | 0.00 | 0.00 | 81 | 1014.6 |
| 20260830220100 | 16 | 221 | 0.0 | 0.0 | 0.00 | 0.00 | 0.00 | 79 | 1014.7 |
| 20260830215700 | 17 | 0.0 | 0.0 | 0.00 | 0.00 | 0.00 | 79 | 1016.3 | |
| 20260830214600 | 17 | 221 | 0.0 | 0.0 | 0.00 | 0.00 | 0.00 | 78 | 1014.7 |
| 20260830213058 | 17 | 221 | 0.0 | 0.0 | 0.00 | 0.00 | 0.00 | 77 | 1014.8 |
| 20260830211558 | 18 | 221 | 0.0 | 0.0 | 0.00 | 0.00 | 0.00 | 76 | 1014.6 |
| 20260830210058 | 18 | 221 | 0.0 | 0.0 | 0.00 | 0.00 | 0.00 | 77 | 1014.6 |
| 20260830205630 | 18 | 0.0 | 0.0 | 0.00 | 0.00 | 0.00 | 77 | 1016.3 | |
| 20260830204604 | 18 | 221 | 0.0 | 0.0 | 0.00 | 0.00 | 0.00 | 77 | 1014.7 |
| 20260830203056 | 18 | 221 | 0.0 | 0.0 | 0.00 | 0.00 | 0.00 | 78 | 1014.7 |
| 20260830201610 | 18 | 221 | 0.0 | 0.0 | 0.00 | 0.00 | 0.00 | 78 | 1014.7 |
| 20260830200100 | 18 | 221 | 0.0 | 0.0 | 0.00 | 0.00 | 0.00 | 77 | 1014.7 |
| 20260830195712 | 19 | 0.0 | 0.0 | 0.00 | 0.00 | 0.00 | 75 | 1016.1 | |
| 20260830194607 | 18 | 221 | 0.0 | 0.0 | 0.00 | 0.00 | 0.00 | 75 | 1014.7 |
| 20260830193107 | 19 | 221 | 0.0 | 0.0 | 0.00 | 0.00 | 0.00 | 73 | 1014.7 |
| 20260830191600 | 20 | 221 | 0.0 | 0.0 | 0.00 | 0.00 | 0.00 | 73 | 1014.7 |
| 20260830190054 | 20 | 221 | 0.0 | 4.8 | 0.00 | 0.00 | 0.00 | 72 | 1014.7 |
| 20260830185642 | 20 | 225 | 1.6 | 4.8 | 0.00 | 0.00 | 0.00 | 71 | 1016.1 |
| 20260830184552 | 20 | 221 | 1.6 | 3.2 | 0.00 | 0.00 | 0.00 | 71 | 1014.6 |
| 20260830183052 | 20 | 221 | 0.0 | 3.2 | 0.00 | 0.00 | 0.00 | 70 | 1014.4 |
| 20260830181555 | 20 | 221 | 0.0 | 0.0 | 0.00 | 0.00 | 0.00 | 71 | 1014.3 |
| 20260830180058 | 21 | 221 | 0.0 | 1.6 | 0.00 | 0.00 | 0.00 | 71 | 1014.2 |
| 20260830175608 | 21 | 0.0 | 0.0 | 0.00 | 0.00 | 0.00 | 70 | 1015.5 | |
| 20260830174556 | 21 | 221 | 0.0 | 4.8 | 0.00 | 0.00 | 0.00 | 70 | 1014.0 |
| 20260830173104 | 21 | 221 | 4.8 | 9.7 | 0.00 | 0.00 | 0.00 | 69 | 1014.1 |
| 20260830171550 | 22 | 221 | 1.6 | 8.0 | 0.00 | 0.00 | 0.00 | 68 | 1014.1 |
| 20260830170050 | 22 | 209 | 3.2 | 9.7 | 0.00 | 0.00 | 0.00 | 67 | 1014.0 |
| 20260830165646 | 22 | 225 | 6.4 | 8.0 | 0.00 | 0.00 | 0.00 | 65 | 1015.5 |
| 20260830164558 | 22 | 215 | 6.4 | 14.5 | 0.00 | 0.00 | 0.00 | 65 | 1013.9 |
| 20260830163104 | 22 | 217 | 6.4 | 12.9 | 0.00 | 0.00 | 0.00 | 64 | 1014.0 |
| 20260830161548 | 23 | 215 | 9.7 | 16.1 | 0.00 | 0.00 | 0.00 | 64 | 1014.0 |
| 20260830160047 | 23 | 214 | 6.4 | 17.7 | 0.00 | 0.00 | 0.00 | 63 | 1014.1 |
| 20260830155718 | 24 | 203 | 6.4 | 9.7 | 0.00 | 0.00 | 0.00 | 63 | 1015.7 |
| 20260830154547 | 23 | 209 | 4.8 | 19.3 | 0.00 | 0.00 | 0.00 | 62 | 1014.0 |
| 20260830153043 | 23 | 211 | 8.0 | 16.1 | 0.00 | 0.00 | 0.00 | 61 | 1014.1 |
| 20260830151543 | 24 | 203 | 8.0 | 16.1 | 0.00 | 0.00 | 0.00 | 60 | 1014.1 |
| 20260830150044 | 25 | 196 | 6.4 | 19.3 | 0.00 | 0.00 | 0.00 | 61 | 1014.1 |
| 20260830145706 | 25 | 270 | 1.6 | 3.2 | 0.00 | 0.00 | 0.00 | 62 | 1016.0 |
| 20260830144541 | 24 | 201 | 11.3 | 19.3 | 0.00 | 0.00 | 0.00 | 60 | 1014.2 |
| 20260830143041 | 25 | 200 | 12.9 | 24.1 | 0.00 | 0.00 | 0.00 | 58 | 1014.2 |
| 20260830141540 | 25 | 202 | 12.9 | 20.9 | 0.00 | 0.00 | 0.00 | 59 | 1014.3 |
| 20260830140039 | 26 | 201 | 8.0 | 16.1 | 0.00 | 0.00 | 0.00 | 56 | 1014.2 |
| 20260830135613 | 26 | 203 | 12.9 | 19.3 | 0.00 | 0.00 | 0.00 | 57 | 1016.1 |
| 20260830134538 | 26 | 191 | 14.5 | 20.9 | 0.00 | 0.00 | 0.00 | 55 | 1014.3 |
| 20260830133036 | 26 | 199 | 9.7 | 25.7 | 0.00 | 0.00 | 0.00 | 56 | 1014.5 |
| 20260830131538 | 25 | 263 | 6.4 | 17.7 | 0.00 | 0.00 | 0.00 | 58 | 1014.5 |
| 20260830130034 | 25 | 200 | 9.7 | 24.1 | 0.00 | 0.00 | 0.00 | 56 | 1014.5 |
| 20260830125543 | 25 | 203 | 4.8 | 8.0 | 0.00 | 0.00 | 0.00 | 59 | 1016.3 |
| 20260830124530 | 25 | 206 | 3.2 | 24.1 | 0.00 | 0.00 | 0.00 | 59 | 1014.6 |
| 20260830123030 | 25 | 200 | 8.0 | 24.1 | 0.00 | 0.00 | 0.00 | 61 | 1014.6 |
| 20260830121530 | 25 | 211 | 11.3 | 20.9 | 0.00 | 0.00 | 0.00 | 59 | 1014.6 |
| 20260830120028 | 25 | 190 | 9.7 | 27.4 | 0.00 | 0.00 | 0.00 | 58 | 1014.6 |
| 20260830115622 | 25 | 203 | 6.4 | 11.3 | 0.00 | 0.00 | 0.00 | 61 | 1016.4 |
| 20260830114525 | 25 | 190 | 6.4 | 17.7 | 0.00 | 0.00 | 0.00 | 61 | 1014.6 |
| 20260830113024 | 24 | 198 | 12.9 | 24.1 | 0.00 | 0.00 | 0.00 | 59 | 1014.7 |
| 20260830111523 | 25 | 202 | 12.9 | 24.1 | 0.00 | 0.00 | 0.00 | 59 | 1014.8 |
| 20260830110021 | 24 | 208 | 14.5 | 25.7 | 0.00 | 0.00 | 0.00 | 58 | 1014.8 |
| 20260830105550 | 23 | 203 | 3.2 | 6.4 | 0.00 | 0.00 | 0.00 | 62 | 1016.6 |
| 20260830104518 | 23 | 261 | 4.8 | 16.1 | 0.00 | 0.00 | 0.00 | 62 | 1014.9 |
| 20260830103025 | 23 | 249 | 8.0 | 20.9 | 0.00 | 0.00 | 0.00 | 63 | 1015.0 |
| 20260830101516 | 23 | 277 | 3.2 | 11.3 | 0.00 | 0.00 | 0.00 | 64 | 1015.0 |
| 20260830100014 | 23 | 199 | 6.4 | 19.3 | 0.00 | 0.00 | 0.00 | 63 | 1015.1 |
| 20260830095546 | 23 | 203 | 8.0 | 14.5 | 0.00 | 0.00 | 0.00 | 65 | 1016.9 |
| 20260830094511 | 22 | 216 | 11.3 | 22.5 | 0.00 | 0.00 | 0.00 | 64 | 1015.2 |
| 20260830093008 | 22 | 222 | 4.8 | 20.9 | 0.00 | 0.00 | 0.00 | 66 | 1015.3 |
| 20260830091510 | 22 | 205 | 12.9 | 25.7 | 0.00 | 0.00 | 0.00 | 65 | 1015.2 |
| 20260830090004 | 21 | 202 | 11.3 | 20.9 | 0.00 | 0.00 | 0.00 | 67 | 1015.3 |
| 20260830085620 | 21 | 270 | 3.2 | 9.7 | 0.00 | 0.00 | 0.00 | 68 | 1016.9 |
| 20260830084502 | 21 | 190 | 8.0 | 19.3 | 0.00 | 0.00 | 0.00 | 68 | 1015.4 |
| 20260830083001 | 21 | 220 | 8.0 | 20.9 | 0.00 | 0.00 | 0.00 | 70 | 1015.3 |
| 20260830081559 | 21 | 209 | 4.8 | 14.5 | 0.00 | 0.00 | 0.00 | 71 | 1015.5 |
| 20260830080054 | 20 | 207 | 6.4 | 14.5 | 0.00 | 0.00 | 0.00 | 73 | 1015.4 |
| 20260830075557 | 20 | 180 | 4.8 | 6.4 | 0.00 | 0.00 | 0.00 | 76 | 1016.9 |
| 20260830074550 | 19 | 175 | 3.2 | 12.9 | 0.00 | 0.00 | 0.00 | 76 | 1015.5 |
| 20260830073049 | 18 | 211 | 3.2 | 9.7 | 0.00 | 0.00 | 0.00 | 78 | 1015.7 |
| 20260830071544 | 18 | 194 | 3.2 | 9.7 | 0.00 | 0.00 | 0.00 | 78 | 1015.7 |
| 20260830070041 | 17 | 210 | 6.4 | 14.5 | 0.00 | 0.00 | 0.00 | 79 | 1015.6 |
| 20260830065527 | 17 | 203 | 3.2 | 3.2 | 0.00 | 0.00 | 0.00 | 81 | 1016.7 |
| 20260830064538 | 17 | 213 | 3.2 | 9.7 | 0.00 | 0.00 | 0.00 | 81 | 1015.3 |
| 20260830063035 | 17 | 206 | 1.6 | 4.8 | 0.00 | 0.00 | 0.00 | 82 | 1015.2 |
| 20260830061533 | 16 | 214 | 3.2 | 6.4 | 0.00 | 0.00 | 0.00 | 82 | 1015.4 |
| 20260830060033 | 16 | 215 | 1.6 | 9.7 | 0.00 | 0.00 | 0.00 | 82 | 1015.4 |
| 20260830055452 | 16 | 180 | 4.8 | 6.4 | 0.00 | 0.00 | 0.00 | 81 | 1016.6 |
| 20260830054530 | 16 | 194 | 3.2 | 8.0 | 0.00 | 0.00 | 0.00 | 81 | 1015.3 |
| 20260830053028 | 16 | 199 | 1.6 | 4.8 | 0.00 | 0.00 | 0.00 | 82 | 1015.2 |
| 20260830051528 | 16 | 186 | 1.6 | 4.8 | 0.00 | 0.00 | 0.00 | 83 | 1015.1 |
| 20260830050027 | 16 | 186 | 0.0 | 3.2 | 0.00 | 0.00 | 0.00 | 83 | 1015.1 |
| 20260830045522 | 16 | 180 | 1.6 | 3.2 | 0.00 | 0.00 | 0.00 | 82 | 1016.4 |
| 20260830044526 | 16 | 186 | 0.0 | 4.8 | 0.00 | 0.03 | 0.00 | 82 | 1015.0 |
| 20260830043026 | 16 | 186 | 1.6 | 4.8 | 0.00 | 0.03 | 0.00 | 81 | 1015.0 |
| 20260830041526 | 16 | 154 | 1.6 | 6.4 | 0.00 | 0.03 | 0.00 | 81 | 1015.0 |
| 20260830040025 | 16 | 186 | 0.0 | 6.4 | 0.00 | 0.03 | 0.00 | 82 | 1015.2 |
| 20260830035445 | 16 | 0.0 | 1.6 | 0.00 | 0.03 | 0.00 | 83 | 1016.7 | |
| 20260830034522 | 16 | 171 | 0.0 | 3.2 | 0.00 | 0.03 | 0.00 | 83 | 1015.2 |
| 20260830033022 | 16 | 171 | 0.0 | 3.2 | 0.00 | 0.03 | 0.00 | 83 | 1015.1 |
| 20260830031521 | 16 | 171 | 0.0 | 3.2 | 0.00 | 0.03 | 0.00 | 83 | 1014.9 |
| 20260830030022 | 16 | 171 | 0.0 | 0.0 | 0.00 | 0.03 | 0.00 | 83 | 1014.9 |
| 20260830025521 | 16 | 0.0 | 0.0 | 0.00 | 0.03 | 0.00 | 83 | 1016.4 | |
| 20260830024519 | 16 | 171 | 0.0 | 0.0 | 0.00 | 0.03 | 0.00 | 83 | 1014.8 |
| 20260830023018 | 15 | 171 | 0.0 | 0.0 | 0.00 | 0.03 | 0.00 | 84 | 1014.8 |
| 20260830021518 | 15 | 171 | 0.0 | 0.0 | 0.00 | 0.03 | 0.00 | 84 | 1014.8 |
| 20260830020025 | 15 | 171 | 0.0 | 1.6 | 0.00 | 0.03 | 0.00 | 85 | 1014.8 |
| 20260830015450 | 16 | 0.0 | 0.0 | 0.00 | 0.03 | 0.00 | 85 | 1016.3 | |
| 20260830014517 | 15 | 171 | 0.0 | 1.6 | 0.00 | 0.03 | 0.00 | 85 | 1014.8 |
| 20260830013016 | 15 | 171 | 0.0 | 1.6 | 0.00 | 0.03 | 0.00 | 85 | 1014.8 |